Flag for Austria Weather past 2 weeks in Bad Radkersburg, Styria, Austria

Now
65 °F

Mild.


Feels Like: 65 °F
Forecast: 60 / 71 °F
Wind: No wind

Location: Murska Sobota

Current Time: Jul 29, 2015 at 12:42:24 AM

Latest Report: Jul 28, 2015 at 11:00 PM


Visibility: N/A

Pressure: 29.82 "Hg

Humidity: 92%

Dew point: 62 °F

Location of Bad RadkersburgLocation

Historic Weather in Bad Radkersburg — Graph

°F

Bad Radkersburg temperature yesterday

Maximum temperature yesterday: 73 °F (at 6:00 PM)
Minimum temperature yesterday: 61 °F (at 3:00 AM)
Average temperature yesterday: 66 °F

Past Weeks' High & Low Weather Summary

 TemperatureHumidityPressure
High95 °F (Jul 22, 4:00 PM)97% (Jul 17, 5:00 AM)30.11 "Hg (Jul 17, 5:00 AM)
Low59 °F (Jul 27, 12:00 AM)36% (Jul 22, 6:00 PM)29.72 "Hg (Jul 25, 3:00 PM)
Average75 °F75%29.93 "Hg
* Reported Jul 13 11:00 PM — Jul 28 11:00 PM, Bad Radkersburg, Weather by CustomWeather, © 2015

Note: Actual official high and low records may vary slightly from our data, if they occured in-between our weather recording intervals... More about our weather records

Advertising

Bad Radkersburg weather history for previous 24 hours

 ConditionsComfort  
Time TempWeatherWind HumidityBarometerVisibility
11:00 PM
Tue, Jul 28
65 °FMild.No wind92%29.82 "HgN/A
10:00 PM66 °FMild.1 mph88%29.82 "HgN/A
9:00 PM67 °FMild.1 mph86%29.80 "HgN/A
8:00 PM70 °FPartly sunny.1 mph79%29.80 "Hg12 mi
7:00 PM72 °FMild.1 mph66%29.80 "HgN/A
6:00 PM73 °FMild.1 mph60%29.80 "HgN/A
5:00 PM72 °FMild.2 mph60%29.81 "HgN/A
4:00 PM72 °FMild.2 mph60%29.83 "HgN/A
3:00 PM69 °FOvercast.1 mph71%29.85 "Hg19 mi
2:00 PM69 °FOvercast.1 mph69%29.87 "Hg6 mi
1:00 PM70 °FMild.2 mph68%29.87 "HgN/A
12:00 PM68 °FMild.2 mph75%29.88 "HgN/A
11:00 AM68 °FMild.1 mph82%29.87 "HgN/A
10:00 AM65 °FMild.1 mph91%29.88 "HgN/A
9:00 AM64 °FMild.2 mph94%29.88 "HgN/A
8:00 AM63 °FOvercast.No wind96%29.87 "Hg6 mi
7:00 AM62 °FLight rain. Overcast.1 mph96%29.87 "Hg6 mi
6:00 AM62 °FCool.2 mph96%29.87 "HgN/A
5:00 AM62 °FCool.1 mph96%29.85 "HgN/A
4:00 AM62 °FCool.1 mph97%29.85 "HgN/A
3:00 AM61 °FCool.1 mph96%29.85 "HgN/A
2:00 AM62 °FCool.1 mph95%29.85 "HgN/A
1:00 AM63 °FMild.No wind94%29.85 "HgN/A
12:00 AM63 °FMild.1 mph93%29.85 "HgN/A
Weather by CustomWeather, © 2015

See weather overviewHow to use our weather pages